2022/12/13 23:23:14+0000,-45.04,-24.37,-34.78,-25.68,-39.07,-36.92
2022/12/13 23:24:06+0000,-42.66,-24.50,-24.16,-23.24,-40.92,-33.69
2022/12/13 23:24:58+0000,-42.80,-26.03,-33.49,-29.94,-37.10,-44.06
2022/12/13 23:25:50+0000,-43.00,-29.37,-32.27,-28.65,-37.69,-43.80
2022/12/13 23:26:42+0000,-43.37,-24.02,-36.52,-27.98,-39.54,-39.21
2022/12/13 23:27:34+0000,-43.27,-23.66,-26.08,-30.23,-29.37,-43.56
2022/12/13 23:28:26+0000,-43.24,-24.06,-35.43,-33.40,-36.40,-44.98
2022/12/13 23:29:18+0000,-42.82,-23.05,-31.75,-33.93,-45.73,-45.94
2022/12/13 23:30:16+0000,-43.81,-25.82,-33.41,-26.85,-39.76,-45.81
2022/12/13 23:31:17+0000,-43.66,-24.86,-33.31,-40.18,-37.15,-45.77
2022/12/13 23:32:09+0000,-43.42,-27.10,-26.12,-25.50,-43.13,-41.57
2022/12/13 23:33:01+0000,-43.67,-26.29,-24.95,-34.03,-39.61,-45.57
2022/12/13 23:33:53+0000,-43.57,-27.10,-34.14,-33.82,-42.32,-45.48
2022/12/13 23:34:46+0000,-43.62,-24.49,-32.16,-25.42,-38.88,-46.90
2022/12/13 23:35:38+0000,-44.18,-26.60,-26.04,-24.41,-33.99,-43.14
2022/12/13 23:36:30+0000,-44.89,-26.94,-26.04,-32.86,-33.78,-44.43
2022/12/13 23:37:22+0000,-44.12,-28.68,-31.11,-31.44,-35.30,-42.12
2022/12/13 23:38:14+0000,-44.82,-24.81,-28.47,-26.32,-35.17,-37.16
2022/12/13 23:39:06+0000,-44.05,-28.85,-26.81,-28.38,-38.26,-40.38
2022/12/13 23:40:04+0000,-42.69,-25.86,-24.28,-44.36,-36.58,-40.56
2022/12/13 23:41:05+0000,-43.22,-28.53,-27.40,-30.25,-35.52,-41.29
2022/12/13 23:41:57+0000,-42.75,-23.07,-35.60,-30.42,-36.09,-43.61
2022/12/13 23:42:49+0000,-43.58,-25.75,-33.40,-43.79,-37.43,-43.23
2022/12/13 23:43:41+0000,-44.00,-25.98,-35.26,-30.90,-39.13,-41.33
2022/12/13 23:44:33+0000,-43.06,-24.98,-27.88,-44.97,-37.08,-39.84
2022/12/13 23:45:25+0000,-43.73,-25.45,-30.95,-29.21,-45.82,-44.11
2022/12/13 23:46:17+0000,-43.50,-24.87,-28.35,-31.14,-40.02,-45.05
2022/12/13 23:47:09+0000,-43.26,-22.29,-30.03,-29.51,-44.88,-41.84
2022/12/13 23:48:01+0000,-43.05,-25.42,-27.64,-33.92,-29.78,-46.23
2022/12/13 23:48:53+0000,-43.65,-26.08,-26.08,-29.73,-36.79,-42.85
2022/12/13 23:49:51+0000,-43.05,-32.14,-27.12,-32.05,-37.44,-40.46
2022/12/13 23:50:43+0000,-42.97,-26.74,-35.47,-25.02,-37.14,-42.99
2022/12/13 23:51:44+0000,-44.73,-24.90,-31.06,-27.52,-35.77,-41.21
2022/12/13 23:52:36+0000,-44.44,-28.52,-25.90,-32.98,-32.34,-40.84
2022/12/13 23:53:28+0000,-44.90,-20.37,-35.98,-35.71,-36.09,-41.45
2022/12/13 23:54:20+0000,-44.63,-29.22,-30.98,-34.27,-36.76,-43.63
2022/12/13 23:55:12+0000,-44.26,-24.33,-35.74,-26.96,-41.67,-41.47
2022/12/13 23:56:04+0000,-42.94,-24.47,-25.83,-43.76,-35.80,-40.23
2022/12/13 23:56:56+0000,-43.73,-28.95,-36.87,-37.57,-39.31,-41.30
2022/12/13 23:57:48+0000,-43.26,-23.33,-29.31,-45.46,-37.34,-45.16
2022/12/13 23:58:40+0000,-43.15,-27.16,-29.44,-28.29,-45.51,-44.70
2022/12/13 23:59:32+0000,-43.50,-22.11,-28.25,-30.14,-37.46,-40.92
2022/12/14 00:00:30+0000,-43.47,-25.24,-25.96,-43.95,-34.38,-43.93
2022/12/14 00:01:34+0000,-43.05,-26.37,-28.12,-28.53,-32.80,-42.26
2022/12/14 00:02:26+0000,-43.52,-24.24,-35.63,-36.43,-32.00,-43.04
2022/12/14 00:03:18+0000,-43.72,-25.68,-28.22,-42.72,-40.15,-41.85
2022/12/14 00:04:10+0000,-43.91,-21.00,-25.96,-32.27,-44.12,-45.38
2022/12/14 00:05:02+0000,-43.55,-22.94,-25.35,-44.20,-36.73,-45.50
2022/12/14 00:05:55+0000,-43.24,-21.53,-30.17,-32.63,-45.35,-43.84
2022/12/14 00:06:47+0000,-44.26,34.16,-32.39,-30.11,-34.94,-45.51
2022/12/14 00:07:39+0000,-44.18,-23.73,-32.34,-27.95,-44.13,-42.68
2022/12/14 00:08:31+0000,-44.19,-22.57,-34.24,-35.20,-36.69,-44.42
2022/12/14 00:09:23+0000,-44.68,-26.03,-33.45,-30.40,-37.63,-42.69
2022/12/14 00:10:20+0000,-43.72,-28.65,-32.14,-34.71,-40.05,-42.97
2022/12/14 00:11:21+0000,-43.09,-29.74,-31.65,-33.31,-39.44,-42.33
2022/12/14 00:12:13+0000,-44.02,-27.34,-31.07,-28.15,-40.26,-43.76
2022/12/14 00:13:05+0000,-42.81,-28.77,-33.55,-28.60,-34.89,-42.69
2022/12/14 00:13:57+0000,-43.16,-20.41,-36.61,-32.48,-40.81,-44.18
2022/12/14 00:14:49+0000,-43.04,-29.15,-31.68,-37.07,-35.78,-42.76
2022/12/14 00:15:42+0000,-42.49,-28.48,-36.52,-24.98,-38.37,-45.15
2022/12/14 00:16:34+0000,-42.14,-20.85,-33.52,-43.95,-39.73,-44.37
2022/12/14 00:17:26+0000,-43.42,-18.06,-35.80,-31.05,-42.02,-45.49
2022/12/14 00:18:18+0000,-43.92,-22.45,-29.92,-43.64,-37.49,-45.30
2022/12/14 00:19:10+0000,-42.43,-21.54,-29.40,-25.77,-38.05,-46.72
2022/12/14 00:20:08+0000,-42.90,-21.01,-25.00,-26.34,-41.65,-42.20
2022/12/14 00:21:09+0000,-42.05,-17.14,-28.60,-29.48,-45.11,-45.11
2022/12/14 00:22:01+0000,-42.47,-23.92,-27.98,-36.86,-40.41,-45.48
2022/12/14 00:22:53+0000,-43.79,-22.63,-30.92,-35.00,-41.67,-42.87
2022/12/14 00:23:45+0000,-44.87,-19.52,-30.69,-32.08,-42.29,-43.73
2022/12/14 00:24:37+0000,-42.99,-23.76,-27.25,-33.41,-38.46,-42.27
2022/12/14 00:25:29+0000,-44.16,-17.33,-33.06,-30.38,-40.80,-41.04
2022/12/14 00:26:21+0000,-42.59,-28.14,-25.79,-31.92,-38.84,-42.67
2022/12/14 00:27:13+0000,-43.13,-20.34,-33.04,-32.50,-38.84,-44.65
2022/12/14 00:28:05+0000,-43.20,-29.08,-26.08,-32.50,-39.65,-46.09
2022/12/14 00:28:57+0000,-41.86,-23.38,-36.49,-33.46,-42.81,-47.05
2022/12/14 00:29:56+0000,-41.75,-19.70,-36.53,-29.75,-43.31,-42.54
2022/12/14 00:30:48+0000,-42.11,-24.49,-30.25,-45.48,-38.99,-42.99
2022/12/14 00:31:49+0000,-41.44,-19.34,-29.24,-44.82,-39.69,-42.92
2022/12/14 00:32:41+0000,-42.75,-18.64,-36.28,-32.39,-41.30,-46.25
2022/12/14 00:33:33+0000,-41.92,-20.48,-28.29,-45.62,-44.26,-45.25
2022/12/14 00:34:25+0000,-41.33,-17.33,-32.19,-35.07,-45.48,-43.02
2022/12/14 00:35:17+0000,-42.79,-19.76,-32.34,-41.39,-40.16,-42.76
2022/12/14 00:36:09+0000,-42.08,-21.56,-30.01,-29.53,-45.20,-45.55
2022/12/14 00:37:01+0000,-41.23,-22.23,-29.89,-29.00,-43.62,-46.95
2022/12/14 00:37:53+0000,-42.19,-20.14,-30.26,-36.42,-44.29,-44.86
2022/12/14 00:38:45+0000,-43.27,-21.94,-30.10,-36.49,-41.49,-45.73
2022/12/14 00:39:38+0000,-43.72,-23.42,-27.14,-33.76,-38.24,-43.28
2022/12/14 00:40:36+0000,-42.97,-27.62,-31.93,-31.62,-43.81,-42.97
2022/12/14 00:41:37+0000,-43.58,-22.08,-26.55,-29.55,-41.40,-43.55
2022/12/14 00:42:29+0000,-44.29,-23.36,-21.35,-32.76,-41.01,-43.66
2022/12/14 00:43:21+0000,-43.73,-29.02,-26.44,-35.45,-38.64,-42.83
2022/12/14 00:44:13+0000,-42.10,-16.23,-31.38,-27.95,-40.34,-46.33
2022/12/14 00:45:05+0000,-42.03,-29.23,-24.46,-30.50,-45.17,-45.80
2022/12/14 00:45:57+0000,-43.07,-20.19,-35.97,-37.53,-45.20,-46.33
2022/12/14 00:46:49+0000,-43.22,-20.43,-31.82,-41.67,-41.47,-45.54
2022/12/14 00:47:41+0000,-42.20,-19.11,-34.82,-29.32,-42.15,-45.88
2022/12/14 00:48:33+0000,-41.76,-17.20,-24.71,-44.80,-43.30,-45.51
2022/12/14 00:49:26+0000,-43.65,-19.85,-29.40,-39.04,-43.19,-46.94
2022/12/14 00:50:22+0000,-43.83,-19.75,-29.97,-37.62,-39.15,-45.83
2022/12/14 00:51:23+0000,-44.01,-21.08,-31.01,-38.54,-42.39,-46.24
2022/12/14 00:52:15+0000,-42.25,-14.81,-30.42,-30.17,-41.64,-46.94
2022/12/14 00:53:07+0000,-36.66,-18.06,-32.39,-36.22,-43.51,-46.62
2022/12/14 00:53:59+0000,-44.75,-19.55,-31.65,-34.98,-41.62,-42.90
2022/12/14 00:54:51+0000,-43.69,-29.60,-29.14,-34.71,-42.76,-43.05
2022/12/14 00:55:44+0000,-44.82,-19.44,-32.14,-33.97,-42.77,-43.80
2022/12/14 00:56:36+0000,-44.83,-29.33,-26.54,-39.14,-41.81,-42.98
2022/12/14 00:57:28+0000,-42.43,-21.51,-35.96,-38.49,-43.86,-43.28
2022/12/14 00:58:20+0000,-40.81,-26.79,-33.06,-35.92,-41.11,-43.11
2022/12/14 00:59:12+0000,-44.30,-17.89,-35.26,-38.49,-39.27,-46.07
2022/12/14 01:00:10+0000,-44.10,-22.36,-27.86,-38.26,-45.32,-45.53
2022/12/14 01:01:11+0000,-43.19,-19.96,-34.78,-40.43,-42.69,-45.28
2022/12/14 01:02:03+0000,-43.95,-22.89,-30.43,-46.59,-44.82,-46.31
2022/12/14 01:02:55+0000,-29.59,-24.22,-31.30,-32.57,-44.21,-44.85
2022/12/14 01:03:47+0000,-32.85,-19.60,-30.86,-44.99,-40.33,-46.26
2022/12/14 01:04:39+0000,-43.15,-21.16,-28.35,-39.38,-45.84,-46.12
2022/12/14 01:05:31+0000,-43.90,-25.26,-27.96,-33.36,-39.59,-45.18
2022/12/14 01:06:24+0000,-36.97,-24.31,-25.44,-30.61,-44.25,-45.46
2022/12/14 01:07:16+0000,-38.13,-19.67,-25.53,-36.92,-43.67,-45.56
2022/12/14 01:08:08+0000,-43.54,-19.80,-28.22,-39.17,-43.41,-44.73
2022/12/14 01:09:00+0000,-44.93,-21.26,-28.51,-37.67,-44.23,-42.65
2022/12/14 01:09:57+0000,-43.66,-19.53,-35.40,-36.15,-42.67,-42.72
2022/12/14 01:10:50+0000,-36.22,-29.94,-27.26,-36.08,-40.34,-42.92
2022/12/14 01:11:51+0000,-39.91,-30.72,-31.23,-32.36,-43.03,-42.51
2022/12/14 01:12:43+0000,-43.45,-22.27,-32.29,-39.22,-43.02,-43.04
2022/12/14 01:13:35+0000,-43.35,-29.40,-30.11,-40.05,-44.61,-41.89
2022/12/14 01:14:27+0000,-35.75,-22.15,-35.92,-36.31,-43.88,-45.90
2022/12/14 01:15:19+0000,-40.39,-29.09,-30.91,-37.78,-42.50,-45.80
2022/12/14 01:16:11+0000,-42.87,-26.14,-35.24,-40.67,-44.18,-44.71
2022/12/14 01:17:03+0000,-42.85,-23.68,-30.22,-43.35,-43.85,-44.98
2022/12/14 01:17:56+0000,-36.00,-23.26,-35.02,-36.34,-44.21,-45.40
2022/12/14 01:18:48+0000,-39.22,-22.06,-33.29,-44.20,-43.77,-46.06
2022/12/14 01:19:46+0000,-39.60,-23.15,-31.81,-37.62,-43.44,-45.86
2022/12/14 01:20:38+0000,-40.55,-22.76,-32.90,-38.76,-42.88,-45.38
2022/12/14 01:21:39+0000,-42.94,-24.92,-30.66,-40.05,-45.07,-46.53
2022/12/14 01:22:32+0000,-43.27,-21.77,-31.00,-38.39,-43.35,-45.59
2022/12/14 01:23:24+0000,-37.05,-25.71,-29.77,-40.96,-44.53,-44.62
2022/12/14 01:24:16+0000,-37.14,-25.87,-27.15,-40.03,-44.63,-43.62
2022/12/14 01:25:08+0000,-40.52,-26.93,-30.74,-41.04,-45.22,-43.72
2022/12/14 01:26:00+0000,-44.51,-27.20,-30.64,-41.35,-45.38,-43.31
2022/12/14 01:26:52+0000,-40.02,-27.15,-29.55,-40.45,-43.88,-42.83
2022/12/14 01:27:44+0000,-43.68,-24.74,-33.50,-40.60,-44.36,-42.79
2022/12/14 01:28:36+0000,-42.93,-28.80,-31.73,-42.18,-44.29,-43.46
2022/12/14 01:29:28+0000,-43.83,-26.57,-28.30,-43.74,-44.57,-44.77
2022/12/14 01:30:25+0000,-38.33,-24.76,-32.08,-39.95,-44.85,-46.23
2022/12/14 01:31:26+0000,-39.95,-24.78,-36.42,-39.80,-45.93,-46.99
2022/12/14 01:32:18+0000,-39.92,-24.68,-31.89,-44.55,-44.71,-45.78
2022/12/14 01:33:10+0000,-39.67,-22.83,-32.52,-42.10,-45.13,-46.62
2022/12/14 01:34:02+0000,-37.93,-26.78,-32.33,-45.25,-45.73,-44.94
2022/12/14 01:34:54+0000,-39.93,-24.97,-33.66,-42.05,-44.41,-46.31
2022/12/14 01:35:46+0000,-39.24,-23.86,-32.58,-42.38,-43.44,-46.20
2022/12/14 01:36:38+0000,-42.37,-22.24,-34.26,-42.43,-44.35,-44.34
2022/12/14 01:37:30+0000,-42.07,-23.33,-34.26,-41.00,-43.52,-46.53
2022/12/14 01:38:22+0000,-29.55,-23.26,-35.19,-38.39,-44.66,-45.12
2022/12/14 01:39:15+0000,-44.96,-24.45,-34.20,-35.30,-43.16,-43.92
2022/12/14 01:40:12+0000,-43.83,-23.91,-36.03,-39.12,-42.87,-43.95
2022/12/14 01:41:14+0000,-42.97,-21.60,-34.55,-38.76,-44.86,-44.12
2022/12/14 01:42:06+0000,-42.98,-28.81,-30.55,-40.98,-44.78,-43.47
2022/12/14 01:42:58+0000,-32.13,-23.45,-36.05,-39.23,-44.91,-43.54
2022/12/14 01:43:50+0000,-35.37,-29.86,-34.64,-39.21,-45.45,-42.61
2022/12/14 01:44:42+0000,-40.82,-20.55,-35.76,-41.56,-44.18,-45.91
2022/12/14 01:45:34+0000,-43.91,-24.73,-31.30,-45.36,-44.64,-46.44
2022/12/14 01:46:26+0000,-36.78,-21.22,-36.12,-42.70,-43.20,-45.44
2022/12/14 01:47:18+0000,-37.39,-21.05,-34.98,-44.02,-45.75,-46.47
2022/12/14 01:48:10+0000,-34.08,-18.93,-33.03,-41.11,-45.48,-46.04
2022/12/14 01:49:02+0000,-41.67,-22.81,-33.72,-45.11,-44.85,-46.00
2022/12/14 01:50:00+0000,-44.69,-23.22,-33.15,-43.88,-44.42,-46.28
2022/12/14 01:51:01+0000,-32.48,-22.62,-34.41,-42.58,-44.50,-47.27
2022/12/14 01:51:53+0000,-41.15,-24.90,-34.73,-43.51,-45.24,-45.72
2022/12/14 01:52:45+0000,-39.74,-22.52,-35.65,-43.34,7.73,-46.33
2022/12/14 01:53:38+0000,-40.52,-20.13,-33.81,-41.43,-44.19,-46.35
2022/12/14 01:54:30+0000,-45.35,-22.13,-34.59,-43.87,-44.44,-44.10
2022/12/14 01:55:22+0000,-34.61,-27.37,-35.13,-43.20,-43.96,-43.81
2022/12/14 01:56:14+0000,-45.21,-24.75,-32.86,-42.50,-44.48,-44.86
2022/12/14 01:57:06+0000,-36.48,-30.44,-33.65,-44.07,-45.06,-43.79
2022/12/14 01:57:58+0000,-42.08,-24.67,-35.20,-44.03,-44.21,-43.50
2022/12/14 01:58:50+0000,-30.54,-27.63,-32.61,-43.71,-45.02,-43.66
2022/12/14 01:59:46+0000,-31.25,-23.77,-31.99,-43.58,-44.55,-46.25
2022/12/14 02:00:38+0000,-40.57,-22.14,-33.30,-43.35,-45.09,-46.26
2022/12/14 02:01:39+0000,-37.66,-23.35,-33.23,-43.48,-44.17,-45.39
2022/12/14 02:02:31+0000,-37.25,-22.69,-35.76,-45.64,-44.52,-46.84
2022/12/14 02:03:23+0000,-33.79,-23.24,-34.02,-43.62,-45.17,-45.82
2022/12/14 02:04:15+0000,-36.54,-24.51,-32.02,-44.35,-45.99,-47.47
2022/12/14 02:05:07+0000,-33.95,-22.66,-34.40,-44.83,-45.06,-46.88
2022/12/14 02:06:00+0000,-43.55,-25.45,-33.79,-44.59,-45.45,-47.03
2022/12/14 02:06:52+0000,-33.79,-26.05,-35.00,-45.50,-45.86,-46.35
2022/12/14 02:07:44+0000,-42.43,-22.91,-32.25,-43.27,-45.86,-45.74
2022/12/14 02:08:36+0000,-34.85,-30.49,-34.50,-42.94,-45.14,-45.98
2022/12/14 02:09:28+0000,-44.51,-23.80,-34.13,-44.48,-44.56,-42.88
2022/12/14 02:10:26+0000,-42.90,-23.46,-35.14,-43.58,-43.59,-43.11
2022/12/14 02:11:27+0000,-40.92,-23.77,-36.00,-44.26,-44.19,-43.47
2022/12/14 02:12:19+0000,-42.44,-20.31,-35.44,-44.83,-43.36,-43.32
2022/12/14 02:13:11+0000,-41.12,-21.97,-35.21,-44.54,-44.81,-43.94
2022/12/14 02:14:03+0000,-40.21,-24.74,-33.68,-44.63,-44.60,-44.30
2022/12/14 02:14:55+0000,-39.75,-23.93,-35.91,-43.75,-44.79,-47.67
2022/12/14 02:15:47+0000,-41.13,-21.80,-34.31,-44.55,-44.51,-46.21
2022/12/14 02:16:39+0000,-40.29,-20.90,-32.33,-44.21,-44.57,-46.62
2022/12/14 02:17:31+0000,-38.12,-24.94,-32.87,-43.96,-44.65,-45.88
2022/12/14 02:18:23+0000,-40.86,-24.58,-35.41,-44.04,-45.27,-46.22
2022/12/14 02:19:15+0000,-42.78,-23.01,-34.57,-44.29,-44.28,-45.99
2022/12/14 02:20:14+0000,-41.91,-21.97,-35.07,-43.63,-44.95,-46.54
2022/12/14 02:21:13+0000,-42.36,-23.17,-34.75,-44.08,-45.79,-46.33
2022/12/14 02:22:05+0000,-37.85,-29.83,-34.42,-43.93,-44.87,-46.12
2022/12/14 02:22:57+0000,-41.05,-23.42,-35.36,-44.10,-45.16,-45.50
2022/12/14 02:23:49+0000,-39.63,-24.44,-35.11,-45.12,-44.72,-44.77
2022/12/14 02:24:41+0000,-34.84,-19.83,-35.99,-44.28,-43.88,-42.96
2022/12/14 02:25:34+0000,-38.86,-23.39,-32.66,-43.96,-45.80,-43.99
2022/12/14 02:26:26+0000,-35.14,-22.70,-35.30,-43.92,-43.66,-43.05
2022/12/14 02:27:18+0000,-42.50,-21.66,-35.17,-44.38,-44.54,-43.07
2022/12/14 02:28:10+0000,-37.38,-21.64,-33.67,-44.09,-44.33,-44.07
2022/12/14 02:29:02+0000,-41.06,-24.07,-34.93,-44.42,-44.31,-43.51
2022/12/14 02:29:58+0000,-42.30,-24.11,-35.11,-44.85,-45.01,-46.02
2022/12/14 02:30:50+0000,-41.27,-28.97,-34.17,-44.82,-45.02,-44.44
2022/12/14 02:31:51+0000,-39.18,-29.70,-34.95,-44.21,-45.47,-46.60
2022/12/14 02:32:43+0000,-40.86,-23.53,-34.46,-44.28,-46.06,-45.82
2022/12/14 02:33:35+0000,-42.04,-29.96,-34.40,-43.96,-45.00,-47.03
2022/12/14 02:34:27+0000,-40.84,-25.74,-36.29,-44.28,-46.32,-45.61
2022/12/14 02:35:19+0000,-39.09,-22.32,-34.91,-45.74,-45.21,-46.08
2022/12/14 02:36:11+0000,-40.21,-22.22,-35.62,-46.05,-45.54,-47.67
2022/12/14 02:37:03+0000,-42.39,-23.06,-34.80,-45.98,-45.06,-46.75
2022/12/14 02:37:55+0000,-39.93,-27.37,-35.18,-41.35,-44.50,-44.91
2022/12/14 02:38:47+0000,-41.16,-23.33,-35.44,-45.02,-44.53,-46.41
2022/12/14 02:39:45+0000,-44.49,-22.87,-35.42,-45.45,-44.63,-46.27
2022/12/14 02:40:37+0000,-37.97,-28.67,-35.32,-44.71,-43.95,-43.77
2022/12/14 02:41:38+0000,-37.40,-22.31,-35.68,-45.06,-43.12,-44.17
2022/12/14 02:42:30+0000,-43.75,-22.51,-34.91,-45.04,-45.12,-42.98
2022/12/14 02:43:22+0000,-43.07,-23.23,-35.65,-45.06,-44.32,-43.93
2022/12/14 02:44:14+0000,-43.38,-24.28,-35.04,-45.57,-44.06,-43.57
2022/12/14 02:45:06+0000,-35.49,-29.75,-34.96,-44.70,-44.89,-43.43
2022/12/14 02:45:58+0000,-42.25,-27.27,-35.75,-44.88,-44.61,-46.65
2022/12/14 02:46:50+0000,-41.38,-29.25,-35.67,-44.78,-44.73,-46.07
2022/12/14 02:47:42+0000,-33.31,-22.63,-35.77,-44.61,-45.12,-45.53
2022/12/14 02:48:34+0000,-38.44,-27.05,-34.35,-45.07,-44.09,-46.12
2022/12/14 02:49:26+0000,-41.48,-27.06,-34.86,-44.52,-44.99,-45.71
2022/12/14 02:50:23+0000,-41.30,-26.58,-35.42,-44.75,-45.46,-45.59
2022/12/14 02:51:24+0000,-39.80,-24.90,-35.14,-44.44,-44.46,-45.63
2022/12/14 02:52:16+0000,-40.52,-22.97,-35.52,-44.03,-45.82,-45.86
2022/12/14 02:53:08+0000,-31.82,-25.49,-35.16,-44.49,-44.66,-46.15
2022/12/14 02:54:00+0000,-41.38,-24.69,-35.09,-44.64,-44.90,-46.66
2022/12/14 02:54:52+0000,-42.34,-24.46,-35.53,-43.06,-44.77,-46.59
2022/12/14 02:55:44+0000,-44.39,-25.09,-35.29,-44.54,-44.72,-42.88
2022/12/14 02:56:36+0000,-37.67,-28.32,-32.64,-44.14,-44.19,-43.92
2022/12/14 02:57:28+0000,-43.52,-23.47,-31.96,-43.59,-44.56,-43.81
2022/12/14 02:58:21+0000,-36.54,-29.43,-36.76,-45.44,-44.80,-42.93
2022/12/14 02:59:13+0000,-38.39,-23.61,-34.76,-44.11,-45.00,-43.27
2022/12/14 03:00:09+0000,-35.04,-25.75,-35.48,-44.28,-44.91,-43.64
2022/12/14 03:01:09+0000,-39.36,-23.71,-31.30,-45.02,-44.70,-46.07
2022/12/14 03:02:01+0000,-36.51,-23.11,-35.38,-44.56,-45.50,-46.40
2022/12/14 03:02:53+0000,-38.22,-21.88,-34.05,-44.22,-44.90,-46.44
2022/12/14 03:03:46+0000,-37.77,-22.48,-35.12,-43.49,-45.01,-45.81
2022/12/14 03:04:38+0000,-40.94,-22.26,-35.79,-43.92,-45.09,-46.59
2022/12/14 03:05:30+0000,-43.53,-24.20,-35.86,-45.18,-45.16,-47.47
2022/12/14 03:06:22+0000,-42.87,-23.56,-35.19,-44.44,-45.43,-46.75
2022/12/14 03:07:14+0000,-40.92,-22.38,-35.78,-43.57,-45.35,-47.18
2022/12/14 03:08:06+0000,-40.48,-29.67,-36.35,-45.17,-45.58,-44.65
2022/12/14 03:08:58+0000,-42.25,-24.52,-36.07,-45.18,-44.24,-46.34
2022/12/14 03:09:54+0000,-38.83,-23.44,-34.83,-44.92,-44.73,-46.23
2022/12/14 03:10:46+0000,-38.84,-23.87,-36.22,-45.29,-44.01,-43.74
2022/12/14 03:11:46+0000,-42.98,-22.65,-35.90,-45.25,-44.62,-43.46
2022/12/14 03:12:39+0000,-35.37,-20.99,-34.96,-44.47,-44.92,-43.86
2022/12/14 03:13:31+0000,-36.13,-25.40,-34.95,-44.16,-44.08,-43.21
2022/12/14 03:14:23+0000,-37.98,-24.96,-34.82,-44.99,-44.22,-43.19
2022/12/14 03:15:15+0000,-39.63,-22.58,-36.15,-45.17,-43.66,-44.05
2022/12/14 03:16:07+0000,-40.60,-20.96,-35.29,-42.96,-44.20,-45.50
2022/12/14 03:16:59+0000,-40.91,-24.48,-35.04,-44.41,-45.19,-45.76
2022/12/14 03:17:51+0000,-42.04,-29.11,-34.47,-43.75,-44.47,-46.03
2022/12/14 03:18:43+0000,-41.61,-21.99,-35.65,-44.21,-43.48,-46.36
2022/12/14 03:19:35+0000,-39.30,-22.50,-36.43,-43.99,-44.51,-45.59
2022/12/14 03:20:30+0000,-40.79,-25.54,-34.88,-44.99,-44.86,-46.33
2022/12/14 03:21:31+0000,-38.61,-25.61,-34.75,-44.14,-44.75,-46.44
2022/12/14 03:22:23+0000,-40.57,-24.00,-35.51,-43.58,-44.14,-46.00
2022/12/14 03:23:15+0000,-42.24,-26.83,-34.68,-44.80,-45.75,-46.35
2022/12/14 03:24:07+0000,-38.17,-25.74,-35.36,-45.03,-45.47,-46.61
2022/12/14 03:25:00+0000,-43.18,-26.14,-35.97,-44.56,-44.22,-43.17
2022/12/14 03:25:52+0000,-42.51,-30.39,-36.22,-43.73,-44.86,-42.93
2022/12/14 03:26:44+0000,-43.81,-22.53,-33.47,-43.40,-45.04,-42.32
2022/12/14 03:27:36+0000,-40.36,-29.06,-35.50,-44.59,-44.25,-42.53
2022/12/14 03:28:28+0000,-43.67,-27.01,-35.47,-44.98,-43.60,-43.82
2022/12/14 03:29:20+0000,-38.36,-28.59,-35.42,-43.72,-44.56,-43.28
2022/12/14 03:30:17+0000,-40.08,-22.78,-36.22,-44.70,-43.15,-47.53
2022/12/14 03:31:18+0000,-40.22,-24.19,-34.33,-44.08,-44.31,-46.10
2022/12/14 03:32:10+0000,-38.57,-23.94,-36.21,-45.18,-44.62,-46.06
2022/12/14 03:33:02+0000,-39.97,-26.19,-35.06,-44.04,-45.22,-46.46
2022/12/14 03:33:54+0000,-38.76,-26.25,-35.40,-45.36,-43.81,-46.51
2022/12/14 03:34:46+0000,-35.98,-25.11,-35.98,-44.40,-43.81,-46.31
2022/12/14 03:35:38+0000,-37.62,-26.21,-35.78,-43.96,-43.94,-46.01
2022/12/14 03:36:31+0000,-41.42,-23.58,-35.85,-44.56,-45.29,-46.50
2022/12/14 03:37:23+0000,-40.38,-27.00,-35.51,-44.55,-44.77,-46.84
2022/12/14 03:38:15+0000,-42.66,-25.01,-35.94,-45.07,-44.72,-46.29
2022/12/14 03:39:07+0000,-41.26,-29.53,-35.83,-45.29,-45.27,-46.97
2022/12/14 03:40:04+0000,-42.46,-23.92,-36.14,-45.54,-43.46,-43.68
2022/12/14 03:41:03+0000,-42.64,-24.34,-36.27,-45.15,-44.22,-43.37
2022/12/14 03:41:55+0000,-39.44,-28.10,-35.78,-44.48,-44.15,-43.29
2022/12/14 03:42:48+0000,-41.10,-23.52,-34.38,-44.37,-44.82,-43.11
2022/12/14 03:43:40+0000,-37.40,-26.52,-36.71,-44.66,-44.37,-42.71
2022/12/14 03:44:32+0000,-36.82,-24.49,-35.73,-43.98,-44.31,-44.29
2022/12/14 03:45:24+0000,-38.92,-28.03,-35.20,-43.99,-44.60,-45.58
2022/12/14 03:46:16+0000,-40.25,-25.29,-34.58,-45.15,-44.00,-46.32
2022/12/14 03:47:08+0000,-38.38,-24.71,-35.17,-44.02,-43.85,-47.69
2022/12/14 03:48:00+0000,-41.70,-26.50,-36.34,-44.32,-43.81,-46.46
2022/12/14 03:48:52+0000,-41.10,-30.08,-35.46,-44.24,-43.11,-46.10
2022/12/14 03:49:47+0000,-37.76,-27.00,-34.85,-44.26,-44.57,-46.08
2022/12/14 03:50:39+0000,-39.91,-29.06,-36.10,-45.08,-44.97,-45.58
2022/12/14 03:51:40+0000,-37.47,-26.56,-34.95,-44.73,-44.42,-46.78
2022/12/14 03:52:32+0000,-37.81,-27.15,-35.48,-45.09,-44.78,-46.87
2022/12/14 03:53:24+0000,-41.65,-25.39,-35.62,-44.06,-44.45,-46.25
2022/12/14 03:54:16+0000,-41.19,-28.28,-35.61,-45.06,-44.41,-43.72
2022/12/14 03:55:08+0000,-42.19,-27.71,-35.99,-44.40,-44.35,-43.50
2022/12/14 03:56:00+0000,-44.02,-27.39,-35.48,-44.53,-44.42,-43.90
2022/12/14 03:56:52+0000,-41.39,-28.51,-35.62,-43.95,-44.54,-43.09
2022/12/14 03:57:44+0000,-43.15,-26.88,-35.67,-43.71,-45.75,-42.19
2022/12/14 03:58:36+0000,-41.45,-29.35,-35.68,-44.45,-43.35,-43.79
2022/12/14 03:59:28+0000,-40.06,-26.12,-34.84,-43.79,-44.15,-45.83
2022/12/14 04:00:24+0000,-39.60,-25.65,-35.29,-44.18,-44.25,-46.44
2022/12/14 04:01:25+0000,-40.74,-25.88,-36.23,-44.94,-44.29,-46.34
2022/12/14 04:02:17+0000,-41.13,-25.84,-35.54,-43.96,-44.80,-46.11
2022/12/14 04:03:09+0000,-41.17,-27.46,-33.73,-44.67,-44.79,-46.79
2022/12/14 04:04:01+0000,-41.31,-27.66,-35.00,-44.08,-45.42,-45.28
2022/12/14 04:04:53+0000,-39.98,-29.34,-35.74,-45.45,-44.47,-45.54
2022/12/14 04:05:45+0000,-40.23,-26.62,-35.49,-44.99,-44.05,-45.77
2022/12/14 04:06:37+0000,-38.42,-29.45,-36.38,-43.92,-44.84,-46.92
2022/12/14 04:07:29+0000,-42.75,-28.14,-35.05,-43.78,-43.71,-46.45
2022/12/14 04:08:21+0000,-36.80,-30.84,-35.47,-44.48,-45.65,-45.15
2022/12/14 04:09:13+0000,-43.10,-29.05,-37.29,-45.17,-45.49,-44.75
2022/12/14 04:10:08+0000,-41.79,-27.10,-36.26,-45.41,-44.95,-44.90
2022/12/14 04:11:09+0000,-41.47,-26.74,-35.87,-45.74,-44.88,-44.88
2022/12/14 04:12:01+0000,-39.47,-28.99,-35.32,-45.98,-45.13,-43.49
2022/12/14 04:12:53+0000,-37.84,-28.12,-35.38,-44.56,-44.32,-44.45
2022/12/14 04:13:45+0000,-40.80,-27.02,-35.50,-44.92,-43.95,-46.35
2022/12/14 04:14:37+0000,-39.25,-28.02,-36.75,-44.95,-45.16,-45.85
2022/12/14 04:15:29+0000,-42.34,-25.16,-36.33,-44.35,-44.57,-46.83
2022/12/14 04:16:21+0000,-38.75,-30.13,-36.31,-44.32,-44.97,-45.87
2022/12/14 04:17:13+0000,-41.51,-28.40,-36.16,-43.79,-45.92,-47.62
2022/12/14 04:18:05+0000,-41.89,-29.36,-34.90,-44.56,-45.62,-46.25
2022/12/14 04:18:57+0000,-39.44,-26.75,-35.19,-44.57,-44.56,-47.08
2022/12/14 04:19:51+0000,-39.73,-28.88,-36.48,-45.57,-45.68,-46.50
2022/12/14 04:20:43+0000,-42.04,-29.29,-36.04,-46.07,-45.78,-46.84
2022/12/14 04:21:44+0000,-41.06,-28.23,-35.42,-45.37,-45.42,-45.60
2022/12/14 04:22:36+0000,-42.44,-29.83,-36.32,-45.89,-46.16,-46.20
2022/12/14 04:23:28+0000,-43.34,-23.77,-35.42,-44.95,-43.64,-43.90
2022/12/14 04:24:20+0000,-41.31,-29.53,-36.08,-44.62,-45.11,-43.69
2022/12/14 04:25:12+0000,-42.50,-27.19,-35.52,-45.05,-45.23,-43.46
2022/12/14 04:26:04+0000,-41.49,-27.32,-35.98,-45.20,-43.98,-43.77
2022/12/14 04:26:56+0000,-40.97,-24.01,-35.09,-44.17,-44.74,-43.04
2022/12/14 04:27:48+0000,-39.64,-27.41,-35.12,-44.22,-44.69,-43.17
2022/12/14 04:28:40+0000,-39.67,-27.99,14.43,-45.56,-44.66,-45.98
2022/12/14 04:29:32+0000,-39.75,-29.96,-35.96,-44.91,-45.40,-45.33
2022/12/14 04:30:28+0000,-42.41,-24.28,-36.83,-44.43,-44.61,-46.02
2022/12/14 04:31:30+0000,-42.81,-24.45,-35.16,-45.48,-45.11,-45.84
2022/12/14 04:32:22+0000,-37.45,-25.20,-36.78,-45.08,-45.43,-45.49
2022/12/14 04:33:14+0000,-42.48,-28.30,-36.04,-45.35,-45.43,-46.57
2022/12/14 04:34:06+0000,-41.01,-29.92,-36.18,-45.21,-44.83,-46.90
2022/12/14 04:34:58+0000,-40.43,-23.63,-36.41,-44.52,-45.22,-45.89
2022/12/14 04:35:50+0000,-38.71,-31.05,-34.99,-44.68,-44.87,-44.51
2022/12/14 04:36:42+0000,-39.42,-29.01,-35.49,-45.70,-45.00,-46.39
2022/12/14 04:37:34+0000,-38.80,-26.78,-35.06,-44.58,-45.10,-44.23
2022/12/14 04:38:26+0000,-42.15,-25.28,-36.43,-44.95,-44.63,-43.45
2022/12/14 04:39:18+0000,-42.33,-29.03,-36.52,-44.42,-45.03,-43.87
2022/12/14 04:40:12+0000,-41.39,-29.19,-36.63,-44.81,-45.31,-43.38